FW4844 Weather Reports


Display with metric or nautical units.
time (UTC)temp
F
wind
direction
speed
MPH
gust
MPH
rain 1hr
in
rain 24hr
in
rain mn
in
humidity
%
barometer
mb
20260902223426 61 202 4.0 11.0 0.00 0.02 0.02 96 1016.2
20260902222926 61 220 3.0 10.0 0.00 0.02 0.02 96 1016.1
20260902222647 61 180 3.0 11.0 0.00 0.02 0.02 96 1015.9
20260902221926 61 123 4.0 11.0 0.00 0.02 0.02 96 1016.1
20260902221431 61 190 3.0 11.0 0.00 0.02 0.02 95 1016.6
20260902220926 61 210 2.0 9.0 0.00 0.02 0.02 95 1016.7
20260902220426 61 213 2.0 12.0 0.00 0.02 0.02 95 1017.1
20260902220149 61 221 3.0 12.0 0.00 0.02 0.02 95 1017.2
20260902215424 61 243 2.0 7.0 0.00 0.02 0.02 95 1017.2
20260902214923 61 213 2.0 7.0 0.00 0.02 0.02 95 1017.3
20260902214421 61 193 2.0 7.0 0.00 0.02 0.02 95 1017.5
20260902213911 61 126 2.0 11.0 0.00 0.02 0.02 95 1017.6
20260902213412 61 192 1.0 11.0 0.00 0.02 0.02 95 1017.7
20260902212909 61 228 2.0 6.0 0.00 0.02 0.02 95 1017.8
20260902212628 61 180 2.0 6.0 0.00 0.02 0.02 95 1017.7
20260902211909 61 201 2.0 5.0 0.00 0.02 0.02 95 1017.6
20260902211409 61 228 2.0 7.0 0.00 0.02 0.02 95 1017.4
20260902210910 61 228 2.0 7.0 0.00 0.02 0.02 95 1017.4
20260902210634 61 214 3.0 7.0 0.00 0.02 0.02 95 1017.4
20260902205909 61 225 3.0 8.0 0.00 0.02 0.02 95 1017.4
20260902205405 61 173 3.0 9.0 0.00 0.02 0.02 95 1017.2
20260902204405 61 213 4.0 12.0 0.00 0.02 0.02 95 1017.5
20260902204131 61 246 3.0 14.0 0.00 0.02 0.02 95 1017.5
20260902203406 61 217 3.0 14.0 0.00 0.02 0.02 94 1017.5
20260902202905 61 215 3.0 9.0 0.00 0.02 0.02 94 1017.5
20260902202406 61 224 2.0 7.0 0.00 0.02 0.02 95 1017.4
20260902201905 62 207 1.0 7.0 0.00 0.02 0.02 95 1017.4
20260902201628 62 210 2.0 8.0 0.00 0.02 0.02 95 1017.3
20260902200906 62 215 3.0 8.0 0.00 0.02 0.02 94 1017.5
20260902200405 62 211 3.0 9.0 0.00 0.02 0.02 95 1017.7
20260902195905 61 193 3.0 9.0 0.00 0.02 0.02 96 1017.7
20260902195405 61 224 3.0 7.0 0.00 0.02 0.02 96 1017.8
20260902195129 61 232 2.0 8.0 0.00 0.02 0.02 96 1017.7
20260902194627 61 237 3.0 10.0 0.00 0.02 0.02 96 1017.7
20260902193905 61 217 3.0 10.0 0.00 0.02 0.02 96 1017.7
20260902193404 61 198 2.0 7.0 0.00 0.02 0.02 96 1017.7
20260902192905 60 138 2.0 7.0 0.00 0.02 0.02 97 1017.5
20260902192405 60 157 2.0 7.0 0.00 0.02 0.02 97 1017.7
20260902191902 60 211 3.0 7.0 0.00 0.02 0.02 97 1017.7
20260902191400 60 175 3.0 8.0 0.00 0.02 0.02 97 1017.9
20260902190859 60 184 4.0 11.0 0.00 0.02 0.02 97 1018.0
20260902190400 60 227 3.0 11.0 0.00 0.02 0.02 97 1018.1
20260902185859 60 198 2.0 7.0 0.00 0.02 0.02 97 1018.2
20260902185355 60 218 2.0 7.0 0.00 0.02 0.02 97 1018.2
20260902184856 60 220 2.0 6.0 0.00 0.02 0.02 97 1018.6
20260902184353 60 231 3.0 6.0 0.00 0.02 0.02 97 1018.5
20260902183852 59 213 3.0 8.0 0.00 0.02 0.02 97 1018.5
20260902183351 60 252 5.0 10.0 0.00 0.02 0.02 97 1018.5
20260902182852 60 209 5.0 10.0 0.00 0.02 0.02 97 1018.6
20260902182351 60 225 4.0 9.0 0.00 0.02 0.02 97 1018.6
20260902181851 60 172 5.0 13.0 0.00 0.02 0.02 97 1018.6
20260902181612 60 211 5.0 13.0 0.00 0.02 0.02 97 1018.8
20260902180849 60 240 4.0 11.0 0.00 0.02 0.02 97 1018.7
20260902180349 60 209 4.0 12.0 0.00 0.02 0.02 97 1018.5
20260902175849 60 222 4.0 12.0 0.00 0.02 0.02 98 1018.5
20260902175350 60 190 4.0 12.0 0.00 0.02 0.02 98 1018.6
20260902174848 60 221 5.0 12.0 0.00 0.02 0.02 98 1018.8
20260902174347 60 211 5.0 14.0 0.00 0.02 0.02 98 1018.6
20260902173847 59 182 5.0 14.0 0.00 0.02 0.02 98 1018.5
20260902173347 59 190 5.0 15.0 0.00 0.02 0.02 98 1018.6
20260902172848 59 194 6.0 15.0 0.00 0.02 0.02 98 1018.9
20260902172347 59 187 5.0 14.0 0.00 0.02 0.02 98 1018.8
20260902171847 59 201 4.0 11.0 0.00 0.02 0.02 98 1018.7
20260902171348 59 217 4.0 9.0 0.00 0.02 0.02 98 1018.7
20260902170842 59 231 3.0 9.0 0.00 0.02 0.02 98 1018.7
20260902170332 60 231 3.0 9.0 0.00 0.02 0.02 98 1018.5
20260902170048 60 194 3.0 9.0 0.00 0.02 0.02 98 1018.5
20260902165320 60 232 2.0 6.0 0.00 0.02 0.02 99 1018.5
20260902164810 60 122 2.0 6.0 0.00 0.02 0.02 99 1018.4
20260902164305 60 219 2.0 8.0 0.00 0.02 0.02 99 1018.2
20260902163758 60 197 2.0 8.0 0.00 0.02 0.02 99 1018.2
20260902163248 60 205 2.0 8.0 0.00 0.02 0.02 99 1018.5
20260902163005 60 223 2.0 8.0 0.00 0.02 0.02 99 1018.5
20260902162236 60 223 2.0 6.0 0.00 0.02 0.02 99 1018.6
20260902161726 60 213 2.0 6.0 0.00 0.02 0.02 99 1018.6
20260902161220 60 144 3.0 10.0 0.00 0.02 0.02 99 1018.6
20260902160715 60 186 4.0 12.0 0.00 0.02 0.02 99 1018.7
20260902160204 60 234 3.0 12.0 0.00 0.02 0.02 99 1018.7
20260902155928 60 201 2.0 6.0 0.00 0.02 0.02 99 1018.6
20260902155153 60 190 1.0 4.0 0.00 0.02 0.02 99 1018.7
20260902154642 60 193 1.0 7.0 0.00 0.02 0.02 99 1018.7
20260902154136 60 143 1.0 7.0 0.00 0.02 0.02 99 1018.8
20260902153854 60 212 1.0 3.0 0.00 0.02 0.02 99 1018.7
20260902153120 60 226 2.0 5.0 0.00 0.02 0.02 99 1018.8
20260902152614 60 227 2.0 5.0 0.00 0.02 0.02 99 1019.0
20260902152108 60 227 2.0 10.0 0.00 0.02 0.02 99 1019.0
20260902151052 60 209 3.0 9.0 0.00 0.02 0.02 99 1019.2
20260902150545 60 202 3.0 9.0 0.00 0.02 0.02 99 1019.2
20260902150034 60 196 1.0 7.0 0.00 0.02 0.02 99 1019.2
20260902145528 60 126 2.0 5.0 0.00 0.02 0.02 99 1019.1
20260902145023 60 221 3.0 7.0 0.00 0.02 0.02 99 1019.1
20260902144512 60 221 2.0 7.0 0.00 0.02 0.02 99 1019.2
20260902144007 60 219 2.0 7.0 0.00 0.02 0.02 99 1019.4
20260902143500 60 225 2.0 6.0 0.00 0.02 0.02 99 1019.3
20260902143214 60 227 2.0 7.0 0.00 0.02 0.02 99 1019.4
20260902142444 60 181 2.0 7.0 0.00 0.02 0.02 99 1019.4
20260902141939 60 225 2.0 4.0 0.00 0.03 0.02 99 1019.2
20260902141428 60 194 2.0 4.0 0.00 0.03 0.02 99 1019.1
20260902141142 60 0 1.0 6.0 0.00 0.03 0.02 99 1019.1
20260902140417 60 163 1.0 6.0 0.00 0.04 0.02 99 1019.0
20260902135907 60 176 1.0 4.0 0.00 0.04 0.02 99 1018.9
20260902135401 60 178 1.0 4.0 0.00 0.05 0.02 99 1018.9
20260902134904 60 196 1.0 6.0 0.00 0.05 0.02 99 1018.8
20260902134620 60 215 2.0 6.0 0.00 0.06 0.02 99 1018.9
20260902133857 60 213 2.0 6.0 0.00 0.06 0.02 99 1018.9
20260902133619 60 201 3.0 6.0 0.00 0.07 0.02 99 1018.9
20260902132900 60 250 3.0 7.0 0.00 0.07 0.02 99 1018.9
20260902132355 60 177 3.0 7.0 0.00 0.07 0.02 99 1019.0
20260902131854 60 178 3.0 6.0 0.00 0.08 0.02 99 1019.1
20260902131357 60 241 3.0 6.0 0.00 0.08 0.02 99 1019.1
20260902130855 60 202 2.0 6.0 0.00 0.08 0.02 99 1018.9
20260902130618 60 217 3.0 8.0 0.00 0.09 0.02 99 1018.8
20260902125851 60 236 2.0 8.0 0.00 0.09 0.02 99 1018.8
20260902125354 60 193 1.0 4.0 0.00 0.09 0.02 99 1018.7
20260902124852 60 192 2.0 5.0 0.00 0.09 0.02 99 1018.7
20260902124351 60 218 3.0 9.0 0.00 0.09 0.02 99 1018.8
20260902124114 60 219 3.0 9.0 0.00 0.09 0.02 99 1018.7
20260902123347 60 198 2.0 9.0 0.00 0.09 0.02 98 1018.6
20260902122836 60 201 3.0 7.0 0.00 0.10 0.02 99 1018.5
20260902122329 60 225 3.0 7.0 0.00 0.10 0.02 98 1018.6
20260902122048 60 252 3.0 7.0 0.00 0.11 0.02 98 1018.6
20260902121331 60 224 2.0 7.0 0.00 0.12 0.02 98 1018.4
20260902120829 60 215 3.0 7.0 0.00 0.13 0.02 98 1018.4
20260902120329 60 210 3.0 7.0 0.00 0.14 0.02 99 1018.5
20260902115829 60 219 2.0 5.0 0.00 0.15 0.02 99 1018.6
20260902115329 60 235 3.0 8.0 0.00 0.16 0.02 99 1018.5
20260902114829 60 209 3.0 8.0 0.00 0.17 0.02 99 1018.5
20260902114326 61 234 2.0 6.0 0.00 0.17 0.02 99 1018.2
20260902113827 61 207 2.0 5.0 0.00 0.17 0.02 99 1018.2
20260902113327 61 167 1.0 4.0 0.00 0.18 0.02 99 1018.2
20260902113043 60 205 1.0 3.0 0.00 0.18 0.02 99 1018.2
20260902112326 60 204 1.0 4.0 0.00 0.19 0.02 99 1018.2
20260902112046 60 209 1.0 4.0 0.00 0.20 0.02 99 1018.4
20260902111321 61 238 1.0 5.0 0.00 0.21 0.02 99 1018.4
20260902111044 61 202 1.0 5.0 0.00 0.21 0.02 99 1018.6
20260902110541 61 202 1.0 2.0 0.00 0.22 0.02 99 1018.5
20260902105536 61 202 1.0 4.0 0.00 0.23 0.02 99 1018.5
20260902104819 61 194 0.0 2.0 0.00 0.24 0.02 99 1018.5
20260902104537 61 194 0.0 2.0 0.00 0.25 0.02 99 1018.4
20260902104040 61 194 0.0 2.0 0.00 0.25 0.02 99 1018.2
20260902103318 61 194 0.0 2.0 0.00 0.25 0.02 99 1018.2
20260902102815 61 194 0.0 2.0 0.00 0.26 0.02 99 1018.1
20260902102314 61 194 0.0 2.0 0.00 0.27 0.02 99 1018.1
20260902101533 61 194 0.0 2.0 0.00 0.27 0.02 99 1018.1
20260902100814 61 194 0.0 3.0 0.00 0.27 0.02 99 1018.0
20260902100314 61 194 1.0 3.0 0.00 0.27 0.02 99 1018.0
20260902095815 60 197 1.0 3.0 0.00 0.27 0.02 99 1018.1
20260902095314 60 197 1.0 6.0 0.00 0.27 0.02 99 1018.1
20260902094810 60 196 1.0 6.0 0.00 0.28 0.02 99 1018.2
20260902094312 60 204 1.0 4.0 0.00 0.28 0.02 99 1018.1
20260902093812 60 210 1.0 4.0 0.00 0.28 0.02 99 1018.1
20260902093532 60 211 1.0 3.0 0.00 0.28 0.02 99 1018.0
20260902092812 60 209 0.0 2.0 0.00 0.28 0.02 98 1017.9
20260902092312 60 209 0.0 2.0 0.00 0.29 0.02 98 1017.9
20260902091812 60 209 0.0 3.0 0.00 0.29 0.02 98 1018.0
20260902091312 60 209 1.0 4.0 0.00 0.30 0.02 98 1017.9
20260902090808 61 196 1.0 5.0 0.00 0.31 0.02 98 1018.0
20260902090533 61 168 2.0 5.0 0.00 0.32 0.02 98 1018.0
20260902085808 61 230 2.0 8.0 0.00 0.32 0.02 98 1018.1
20260902085307 61 184 1.0 8.0 0.00 0.33 0.02 98 1018.2
20260902084806 61 196 1.0 5.0 0.00 0.33 0.02 99 1018.2
20260902084307 61 194 1.0 5.0 0.00 0.33 0.02 98 1018.2
20260902083804 61 194 1.0 4.0 0.00 0.33 0.02 98 1018.2
20260902083303 61 159 0.0 2.0 0.00 0.33 0.02 98 1018.4
20260902082800 61 157 0.0 1.0 0.00 0.33 0.02 98 1018.4
20260902082259 61 157 0.0 3.0 0.00 0.33 0.02 98 1018.2
20260902081756 61 157 0.0 3.0 0.00 0.33 0.02 98 1018.0
20260902081255 61 132 0.0 1.0 0.00 0.33 0.02 98 1018.1
20260902080755 61 132 1.0 3.0 0.00 0.33 0.02 98 1018.1
20260902080512 61 132 1.0 3.0 0.00 0.33 0.02 98 1018.0
20260902075754 61 132 1.0 3.0 0.00 0.33 0.02 98 1017.9
20260902075252 61 126 1.0 3.0 0.00 0.33 0.02 98 1017.8
20260902075010 61 106 0.0 2.0 0.00 0.33 0.02 98 1017.8
20260902074251 61 105 0.0 2.0 0.00 0.33 0.02 98 1017.8
20260902073751 61 105 1.0 3.0 0.00 0.33 0.02 98 1017.9
20260902073249 61 105 1.0 3.0 0.00 0.33 0.02 98 1017.9
20260902072748 61 105 1.0 2.0 0.00 0.33 0.02 98 1017.9
20260902072249 61 105 0.0 3.0 0.00 0.33 0.02 98 1017.8
20260902071747 61 105 0.0 3.0 0.00 0.33 0.02 98 1018.0
20260902071245 62 151 0.0 2.0 0.00 0.33 0.02 98 1017.8
20260902070744 62 151 0.0 2.0 0.00 0.33 0.02 98 1017.9
20260902070242 62 151 0.0 2.0 0.00 0.33 0.02 98 1018.1
20260902065740 62 151 0.0 2.0 0.00 0.33 0.02 98 1018.1
20260902065240 62 151 0.0 2.0 0.00 0.33 0.02 98 1018.0
20260902064734 62 151 1.0 3.0 0.00 0.33 0.02 98 1017.9
20260902064229 62 144 0.0 3.0 0.00 0.33 0.02 98 1017.9
20260902063724 62 144 0.0 1.0 0.00 0.33 0.02 98 1017.8
20260902063222 62 144 0.0 1.0 0.00 0.33 0.02 98 1017.9
20260902062721 62 144 0.0 1.0 0.00 0.33 0.02 98 1017.9
20260902062222 62 144 0.0 2.0 0.00 0.33 0.02 98 1017.9
20260902061945 62 144 0.0 2.0 0.00 0.33 0.02 98 1018.0
20260902061218 62 144 0.0 2.0 0.00 0.33 0.02 98 1018.0
20260902060718 62 144 1.0 2.0 0.00 0.33 0.02 98 1018.0
20260902060217 62 143 0.0 2.0 0.00 0.33 0.02 98 1018.0
20260902055934 62 118 0.0 1.0 0.00 0.33 0.02 98 1017.9
20260902055212 62 118 0.0 1.0 0.00 0.33 0.02 98 1017.9
20260902054712 62 118 0.0 1.0 0.00 0.33 0.02 98 1017.8
20260902054212 62 118 0.0 2.0 0.00 0.33 0.02 98 1017.7
20260902053711 62 118 0.0 2.0 0.01 0.33 0.02 98 1017.7
20260902053208 61 113 0.0 0.0 0.01 0.33 0.02 98 1017.7
20260902052708 62 113 0.0 0.0 0.01 0.33 0.02 98 1017.6
20260902051930 62 113 0.0 1.0 0.01 0.33 0.02 98 1017.6
20260902051206 62 113 1.0 2.0 0.02 0.33 0.02 98 1017.6
20260902050706 62 113 1.0 2.0 0.02 0.33 0.02 98 1017.6
20260902050206 62 113 1.0 2.0 0.02 0.33 0.02 98 1017.6
20260902045925 62 113 1.0 4.0 0.02 0.33 0.02 98 1017.5
20260902045203 62 113 1.0 4.0 0.02 0.33 0.02 98 1017.6
20260902044701 62 112 1.0 3.0 0.02 0.33 0.02 98 1017.6
20260902044159 62 112 1.0 3.0 0.02 0.33 0.02 98 1017.5
20260902043656 62 111 0.0 3.0 0.01 0.32 0.01 98 1017.5
20260902043154 62 115 0.0 2.0 0.01 0.32 0.01 98 1017.4
20260902042654 62 115 1.0 2.0 0.01 0.32 0.01 98 1017.4
20260902042411 62 113 0.0 2.0 0.01 0.32 0.01 98 1017.5
20260902041652 62 113 0.0 2.0 0.01 0.32 0.01 98 1017.4
20260902041150 62 113 0.0 2.0 0.00 0.31 0.00 98 1017.4
20260902040650 62 113 0.0 3.0 0.00 0.31 0.00 98 1017.3
20260902040151 62 113 0.0 3.0 0.00 0.31 0.00 98 1017.3
20260902035644 62 113 0.0 1.0 0.00 0.31 0.31 98 1017.2
20260902035139 62 113 0.0 1.0 0.00 0.31 0.31 98 1017.3
20260902034629 62 113 0.0 2.0 0.00 0.31 0.31 98 1017.4
20260902034123 62 113 0.0 2.0 0.00 0.31 0.31 98 1017.3
20260902033836 62 113 0.0 1.0 0.00 0.31 0.31 97 1017.3
20260902033107 62 113 0.0 2.0 0.00 0.31 0.31 97 1017.3
20260902032601 62 113 0.0 2.0 0.00 0.31 0.31 97 1017.3
20260902032055 62 113 0.0 2.0 0.00 0.31 0.31 97 1017.3
20260902031039 62 113 0.0 2.0 0.00 0.31 0.31 97 1017.2
20260902030533 62 113 0.0 1.0 0.00 0.31 0.31 97 1017.2
20260902030245 62 113 0.0 1.0 0.00 0.31 0.31 97 1017.1
20260902025739 62 113 0.0 2.0 0.00 0.31 0.31 97 1017.1
20260902025010 62 113 0.0 2.0 0.00 0.31 0.31 97 1017.0
20260902024501 62 113 0.0 2.0 0.00 0.31 0.31 97 1016.9
20260902023955 62 113 0.0 2.0 0.00 0.31 0.31 97 1016.8
20260902023712 62 113 0.0 2.0 0.00 0.31 0.31 97 1016.8
20260902022939 62 113 1.0 2.0 0.00 0.31 0.31 97 1016.8
20260902022433 62 113 1.0 3.0 0.00 0.31 0.31 97 1016.7
20260902021927 62 110 0.0 3.0 0.00 0.31 0.31 97 1016.8
20260902021417 62 109 0.0 2.0 0.00 0.31 0.31 97 1016.9
20260902020916 62 109 0.0 2.0 0.00 0.31 0.31 97 1016.9
20260902020416 62 109 0.0 3.0 0.00 0.31 0.31 97 1016.9
20260902015916 62 109 0.0 3.0 0.00 0.31 0.31 97 1016.9
20260902015416 62 109 0.0 3.0 0.00 0.31 0.31 97 1016.9
20260902014916 62 113 1.0 3.0 0.00 0.31 0.31 97 1016.9
20260902014414 62 113 0.0 4.0 0.00 0.31 0.31 97 1016.8
20260902013912 62 113 0.0 4.0 0.00 0.31 0.31 97 1016.7
20260902013410 62 126 0.0 3.0 0.00 0.31 0.31 97 1016.8
20260902012410 62 129 1.0 3.0 0.00 0.31 0.31 97 1016.8
20260902011908 62 129 0.0 3.0 0.00 0.31 0.31 97 1016.9
20260902011408 62 129 0.0 3.0 0.00 0.31 0.31 97 1016.9
20260902010908 62 129 1.0 4.0 0.00 0.31 0.31 97 1016.8
20260902010408 63 129 1.0 4.0 0.00 0.31 0.31 97 1016.7
20260902010124 63 126 1.0 3.0 0.00 0.31 0.31 97 1016.7
20260902005401 63 126 1.0 5.0 0.00 0.31 0.31 97 1016.7
20260902004855 63 114 1.0 5.0 0.00 0.31 0.31 97 1016.6
20260902004352 63 86 1.0 3.0 0.00 0.31 0.31 97 1016.5
20260902003852 63 85 1.0 3.0 0.00 0.31 0.31 97 1016.4
20260902003353 63 104 1.0 3.0 0.00 0.31 0.31 97 1016.2
20260902002851 63 162 0.0 2.0 0.00 0.31 0.31 97 1016.2
20260902002348 63 162 1.0 4.0 0.00 0.31 0.31 97 1016.2
20260902001848 63 163 1.0 4.0 0.00 0.31 0.31 97 1016.2
20260902001348 63 87 1.0 4.0 0.00 0.31 0.31 97 1016.4
20260902000846 63 119 1.0 3.0 0.00 0.31 0.31 97 1016.4
20260902000344 63 115 0.0 3.0 0.00 0.31 0.31 97 1016.5
20260901235842 63 114 0.0 3.0 0.00 0.31 0.31 97 1016.5
20260901235340 63 114 1.0 2.0 0.00 0.31 0.31 97 1016.5
20260901234838 63 114 1.0 2.0 0.00 0.31 0.31 97 1016.5
20260901234341 63 114 1.0 2.0 0.00 0.31 0.31 96 1016.4
20260901233839 63 113 1.0 3.0 0.00 0.31 0.31 96 1016.2
20260901233338 64 111 0.0 3.0 0.00 0.31 0.31 96 1016.5
20260901232838 64 103 0.0 3.0 0.00 0.31 0.31 96 1016.5
20260901232556 64 103 0.0 3.0 0.00 0.31 0.31 96 1016.5
20260901231336 64 102 0.0 2.0 0.00 0.31 0.31 95 1016.5
20260901230834 64 101 1.0 3.0 0.00 0.31 0.31 95 1016.4
20260901230332 64 101 1.0 4.0 0.00 0.31 0.31 95 1016.2
20260901225832 65 130 1.0 4.0 0.00 0.31 0.31 95 1016.0
20260901225555 65 106 1.0 4.0 0.00 0.31 0.31 95 1015.9
20260901224832 65 105 1.0 4.0 0.00 0.31 0.31 95 1015.9
20260901224333 65 109 1.0 4.0 0.00 0.31 0.31 94 1015.9
20260901223832 65 72 0.0 4.0 0.00 0.31 0.31 95 1015.8